EW7343 Weather Reports


time (UTC)temp
C
wind
direction
speed
KPH
gust
KPH
rain 1hr
cm
rain 24hr
cm
rain mn
cm
humidity
%
barometer
mb
20260507075922 9 303 3.2 12.9 0.00 0.74 0.00 87 1006.5
20260507075202 9 0 3.2 12.9 0.00 0.74 0.00 87 1006.4
20260507074702 9 43 3.2 11.3 0.00 0.74 0.00 87 1006.4
20260507074202 9 0 3.2 11.3 0.00 0.74 0.00 87 1006.3
20260507073702 10 317 3.2 16.1 0.00 0.74 0.00 88 1006.2
20260507073201 10 0 3.2 16.1 0.00 0.74 0.00 87 1006.3
20260507072659 10 293 3.2 12.9 0.00 0.74 0.00 88 1006.1
20260507072200 10 38 3.2 9.7 0.00 0.74 0.00 89 1006.1
20260507071700 10 330 3.2 9.7 0.00 0.74 0.00 89 1006.3
20260507071200 10 310 3.2 9.7 0.00 0.74 0.00 89 1006.3
20260507070700 10 309 3.2 11.3 0.00 0.74 0.00 90 1006.1
20260507070424 10 32 4.8 12.9 0.00 0.74 0.00 89 1005.9
20260507065700 10 304 3.2 12.9 0.00 0.74 0.00 89 1006.1
20260507065200 10 0 3.2 12.9 0.00 0.74 0.00 90 1006.1
20260507064700 10 0 3.2 12.9 0.00 0.74 0.00 89 1006.1
20260507064200 10 356 3.2 11.3 0.00 0.74 0.00 89 1005.9
20260507063701 10 338 3.2 12.9 0.00 0.74 0.00 89 1005.9
20260507063157 10 306 4.8 12.9 0.00 0.74 0.00 89 1005.9
20260507062657 10 322 3.2 11.3 0.00 0.74 0.00 89 1005.9
20260507062157 10 324 3.2 9.7 0.00 0.74 0.00 89 1005.9
20260507061658 10 307 3.2 11.3 0.00 0.74 0.00 89 1006.0
20260507061157 10 50 3.2 11.3 0.00 0.74 0.00 89 1006.0
20260507060918 10 309 3.2 11.3 0.00 0.74 0.00 89 1006.0
20260507060155 10 311 1.6 8.0 0.00 0.74 0.00 89 1006.1
20260507055655 10 0 1.6 8.0 0.00 0.74 0.00 90 1006.0
20260507055155 10 0 1.6 9.7 0.00 0.74 0.00 90 1006.1
20260507054655 10 291 3.2 11.3 0.00 0.74 0.00 90 1006.0
20260507054207 10 0 3.2 11.3 0.00 0.74 0.00 90 1006.0
20260507053655 10 0 3.2 16.1 0.00 0.74 0.00 90 1005.9
20260507053155 10 317 4.8 16.1 0.00 0.74 0.00 90 1006.1
20260507052655 10 0 3.2 16.1 0.00 0.74 0.00 90 1006.1
20260507052153 10 314 3.2 9.7 0.00 0.74 0.00 90 1006.1
20260507051653 10 201 3.2 9.7 0.00 0.74 0.00 90 1005.9
20260507051150 11 323 3.2 11.3 0.00 0.74 0.00 91 1005.7
20260507050650 11 50 3.2 11.3 0.00 0.74 0.00 90 1005.8
20260507050150 11 247 3.2 12.9 0.00 0.74 0.00 90 1005.7
20260507045650 11 321 3.2 12.9 0.00 0.74 0.00 90 1006.0
20260507045150 11 157 3.2 11.3 0.00 0.74 0.00 90 1006.0
20260507044651 11 78 1.6 8.0 0.00 0.74 0.00 91 1006.0
20260507044150 11 322 1.6 9.7 0.00 0.74 0.00 91 1006.0
20260507043650 11 273 1.6 9.7 0.00 0.74 0.00 91 1006.1
20260507043408 11 193 1.6 8.0 0.00 0.74 0.00 90 1006.1
20260507042650 11 340 1.6 8.0 0.00 0.74 0.00 90 1005.8
20260507042631 11 357 1.6 8.0 0.00 0.74 0.00 91 1005.8
20260507041650 11 0 1.6 8.0 0.00 0.74 0.00 90 1005.7
20260507041148 12 245 3.2 9.7 0.00 0.74 0.00 90 1005.7
20260507040912 12 298 3.2 11.3 0.00 0.74 0.00 90 1005.6
20260507040148 12 63 3.2 11.3 0.00 0.74 0.00 90 1005.7
20260507035648 12 257 3.2 9.7 0.00 0.74 0.74 90 1005.4
20260507035148 12 121 3.2 12.9 0.00 0.74 0.74 90 1005.3
20260507034647 12 219 3.2 12.9 0.00 0.74 0.74 89 1005.2
20260507034148 13 0 3.2 14.5 0.00 0.74 0.74 89 1005.3
20260507033648 13 16 3.2 14.5 0.00 0.74 0.74 88 1005.3
20260507033430 13 44 3.2 11.3 0.00 0.74 0.74 89 1005.3
20260507032649 13 318 4.8 14.5 0.00 0.74 0.74 90 1005.4
20260507032148 14 269 4.8 16.1 0.00 0.74 0.74 90 1005.5
20260507031645 14 315 3.2 16.1 0.00 0.74 0.74 92 1005.3
20260507031146 14 32 3.2 8.0 0.00 0.74 0.74 92 1005.2
20260507030646 15 317 3.2 14.5 0.00 0.74 0.74 92 1005.0
20260507030146 15 302 3.2 14.5 0.00 0.74 0.74 93 1004.9
20260507025645 15 210 1.6 14.5 0.00 0.74 0.74 94 1004.9
20260507025413 15 357 3.2 8.0 0.00 0.74 0.74 94 1004.8
20260507024646 15 353 1.6 8.0 0.00 0.74 0.74 94 1004.8
20260507024146 15 0 1.6 6.4 0.00 0.74 0.74 94 1004.6
20260507023645 15 0 1.6 6.4 0.00 0.74 0.74 94 1004.6
20260507023408 15 0 1.6 6.4 0.00 0.74 0.74 94 1004.5
20260507022646 15 175 1.6 6.4 0.00 0.74 0.74 94 1004.6
20260507022627 15 145 1.6 4.8 0.00 0.74 0.74 94 1004.5
20260507021643 15 328 1.6 4.8 0.00 0.74 0.74 94 1004.6
20260507021140 15 189 1.6 9.7 0.00 0.74 0.74 94 1004.6
20260507020640 15 0 1.6 9.7 0.00 0.74 0.74 94 1004.7
20260507020354 15 185 1.6 4.8 0.00 0.74 0.74 94 1004.8
20260507015637 15 0 1.6 4.8 0.00 0.74 0.74 94 1004.8
20260507015134 15 0 1.6 6.4 0.00 0.74 0.74 94 1004.8
20260507014635 15 0 1.6 6.4 0.00 0.74 0.74 94 1004.9
20260507014135 15 0 0.0 4.8 0.00 0.74 0.74 94 1004.9
20260507013634 15 222 1.6 6.4 0.00 0.74 0.74 94 1004.9
20260507013133 15 190 1.6 8.0 0.00 0.74 0.74 94 1004.9
20260507012634 15 204 0.0 8.0 0.00 0.74 0.74 94 1004.9
20260507012134 15 0 0.0 4.8 0.00 0.74 0.74 94 1004.9
20260507011634 15 201 1.6 4.8 0.00 0.74 0.74 94 1005.0
20260507011134 15 0 0.0 4.8 0.00 0.74 0.74 94 1004.9
20260507010634 15 0 1.6 9.7 0.00 0.74 0.74 94 1004.9
20260507010134 15 0 1.6 9.7 0.00 0.74 0.74 94 1004.9
20260507005634 15 264 1.6 6.4 0.00 0.74 0.74 94 1004.9
20260507005133 15 232 1.6 6.4 0.00 0.74 0.74 94 1004.9
20260507004633 15 183 1.6 6.4 0.03 0.74 0.74 94 1004.9
20260507004133 15 218 1.6 6.4 0.03 0.74 0.74 94 1005.0
20260507003632 15 0 1.6 6.4 0.03 0.74 0.74 94 1004.9
20260507003132 15 222 1.6 6.4 0.03 0.74 0.74 94 1004.8
20260507002853 15 0 1.6 6.4 0.03 0.74 0.74 94 1004.9
20260507002133 15 226 1.6 6.4 0.05 0.74 0.74 94 1004.8
20260507001633 15 0 1.6 6.4 0.05 0.74 0.74 94 1004.8
20260507001133 15 257 1.6 6.4 0.05 0.74 0.74 94 1004.7
20260507000633 15 0 0.0 4.8 0.05 0.74 0.74 94 1004.7
20260507000409 15 0 0.0 4.8 0.05 0.74 0.74 94 1004.7
20260506235856 15 0 1.6 9.7 0.05 0.74 0.74 94 1004.7
20260506235133 15 0 1.6 9.7 0.05 0.74 0.74 94 1004.7
20260506234631 15 241 1.6 8.0 0.03 0.71 0.71 94 1004.7
20260506234131 15 246 1.6 8.0 0.03 0.71 0.71 94 1004.6
20260506233633 15 0 1.6 6.4 0.03 0.71 0.71 94 1004.6
20260506233130 15 222 1.6 6.4 0.03 0.71 0.71 94 1004.6
20260506232852 15 261 1.6 6.4 0.03 0.71 0.71 94 1004.7
20260506232130 15 143 1.6 8.0 0.00 0.69 0.69 94 1004.8
20260506231630 15 0 1.6 8.0 0.00 0.69 0.69 93 1004.9
20260506231130 15 280 1.6 8.0 0.00 0.69 0.69 94 1004.9
20260506230630 15 266 1.6 4.8 0.00 0.69 0.69 94 1004.8
20260506230130 15 126 1.6 9.7 0.03 0.69 0.69 93 1004.8
20260506225630 15 0 3.2 9.7 0.05 0.69 0.69 93 1004.8
20260506225129 15 220 1.6 9.7 0.10 0.69 0.69 94 1004.8
20260506224847 15 0 1.6 8.0 0.10 0.69 0.69 94 1004.9
20260506224130 15 231 1.6 8.0 0.13 0.69 0.69 94 1004.9
20260506223631 15 131 3.2 8.0 0.13 0.69 0.69 94 1004.9
20260506223130 15 260 3.2 8.0 0.13 0.69 0.69 94 1005.0
20260506222630 15 238 1.6 6.4 0.15 0.69 0.69 94 1005.0
20260506222131 15 184 1.6 9.7 0.18 0.69 0.69 94 1005.0
20260506221630 15 229 1.6 9.7 0.18 0.69 0.69 94 1005.0
20260506221143 15 205 1.6 6.4 0.20 0.69 0.69 94 1005.0
20260506220630 15 205 1.6 6.4 0.20 0.69 0.69 94 1005.1
20260506220352 15 206 3.2 9.7 0.20 0.66 0.66 94 1005.2
20260506215629 15 188 3.2 9.7 0.18 0.64 0.64 93 1005.2
20260506215351 15 217 1.6 8.0 0.15 0.58 0.58 93 1005.2
20260506214631 15 248 1.6 6.4 0.15 0.58 0.58 93 1005.2
20260506214345 15 204 3.2 9.7 0.15 0.56 0.56 93 1005.3
20260506213627 15 220 3.2 12.9 0.18 0.56 0.56 93 1005.3
20260506213127 15 0 3.2 12.9 0.20 0.56 0.56 93 1005.3
20260506212627 15 225 3.2 9.7 0.20 0.56 0.56 93 1005.4
20260506212127 16 228 3.2 9.7 0.20 0.51 0.51 93 1005.3
20260506211627 16 0 3.2 8.0 0.18 0.51 0.51 93 1005.5
20260506211127 16 0 3.2 9.7 0.18 0.48 0.48 93 1005.4
20260506210627 16 141 3.2 9.7 0.18 0.48 0.48 93 1005.4
20260506210127 16 225 1.6 8.0 0.18 0.46 0.46 93 1005.4
20260506205627 16 0 3.2 8.0 0.18 0.46 0.46 93 1005.4
20260506205125 16 190 1.6 6.4 0.18 0.46 0.46 93 1005.4
20260506204625 16 0 1.6 6.4 0.15 0.43 0.43 93 1005.5
20260506204121 16 230 1.6 8.0 0.15 0.43 0.43 93 1005.5
20260506203622 16 172 1.6 8.0 0.10 0.38 0.38 93 1005.5
20260506203122 16 0 1.6 8.0 0.10 0.36 0.36 93 1005.6
20260506202622 16 0 3.2 8.0 0.10 0.33 0.33 93 1005.6
20260506202122 16 203 1.6 4.8 0.10 0.33 0.33 94 1005.5
20260506201621 16 0 0.0 4.8 0.10 0.30 0.30 94 1005.5
20260506201122 16 0 1.6 4.8 0.10 0.30 0.30 93 1005.5
20260506200622 16 0 0.0 3.2 0.10 0.28 0.28 93 1005.5
20260506200122 16 0 0.0 3.2 0.10 0.28 0.28 93 1005.3
20260506195622 16 0 0.0 3.2 0.10 0.28 0.28 93 1005.4
20260506195123 16 0 0.0 3.2 0.13 0.28 0.28 93 1005.5
20260506194619 16 228 0.0 4.8 0.15 0.28 0.28 92 1005.5
20260506194119 16 0 0.0 4.8 0.15 0.28 0.28 92 1005.4
20260506193616 16 0 0.0 3.2 0.15 0.28 0.28 92 1005.4
20260506193341 16 0 0.0 1.6 0.15 0.25 0.25 92 1005.5
20260506192617 16 214 0.0 1.6 0.15 0.23 0.23 92 1005.6
20260506192343 16 0 0.0 3.2 0.15 0.23 0.23 91 1005.7
20260506191617 16 0 0.0 3.2 0.18 0.23 0.23 91 1005.7
20260506191117 17 327 1.6 6.4 0.20 0.20 0.20 91 1005.7
20260506190630 17 321 1.6 8.0 0.18 0.18 0.18 91 1005.8
20260506190114 17 315 1.6 8.0 0.18 0.18 0.18 90 1005.9
20260506185614 17 53 3.2 16.1 0.18 0.18 0.18 90 1005.9
20260506185331 17 17 1.6 16.1 0.15 0.15 0.15 90 1006.1
20260506184832 17 333 1.6 8.0 0.13 0.13 0.13 89 1005.9
20260506184335 17 323 1.6 8.0 0.13 0.13 0.13 88 1005.7
20260506183612 18 310 3.2 8.0 0.10 0.10 0.10 87 1005.7
20260506183330 18 246 1.6 12.9 0.10 0.10 0.10 86 1005.8
20260506182608 19 0 3.2 12.9 0.10 0.10 0.10 83 1005.7
20260506182109 20 326 4.8 12.9 0.08 0.08 0.08 79 1005.7
20260506181609 21 316 4.8 12.9 0.05 0.05 0.05 69 1005.7
20260506181109 21 182 6.4 12.9 0.00 0.00 0.00 63 1005.5
20260506180609 22 206 6.4 19.3 0.00 0.00 0.00 61 1005.3
20260506180114 22 223 6.4 19.3 0.00 0.00 0.00 58 1005.2
20260506175825 22 133 6.4 14.5 0.00 0.00 0.00 57 1005.2
20260506175109 22 203 4.8 14.5 0.00 0.00 0.00 57 1005.1
20260506174831 22 185 4.8 11.3 0.00 0.00 0.00 57 1005.2
20260506174107 22 194 4.8 14.5 0.00 0.00 0.00 57 1005.3
20260506173604 22 326 4.8 14.5 0.00 0.00 0.00 57 1005.3
20260506173104 22 171 4.8 14.5 0.00 0.00 0.00 56 1005.4
20260506172833 22 227 6.4 20.9 0.00 0.00 0.00 58 1005.4
20260506172103 22 264 6.4 20.9 0.00 0.00 0.00 57 1005.5
20260506171602 22 140 4.8 11.3 0.00 0.00 0.00 58 1005.5
20260506171102 22 164 4.8 11.3 0.00 0.00 0.00 59 1005.5
20260506170602 22 211 4.8 11.3 0.00 0.00 0.00 59 1005.6
20260506170337 22 212 3.2 11.3 0.00 0.00 0.00 59 1005.7
20260506165603 22 185 3.2 11.3 0.00 0.00 0.00 60 1005.8
20260506165103 22 0 3.2 12.9 0.00 0.00 0.00 60 1005.8
20260506164603 22 331 3.2 12.9 0.00 0.00 0.00 60 1005.9
20260506164101 22 231 3.2 12.9 0.00 0.00 0.00 61 1006.0
20260506163602 22 168 3.2 12.9 0.00 0.00 0.00 59 1006.0
20260506163102 22 200 3.2 9.7 0.00 0.00 0.00 59 1006.1
20260506162602 21 0 4.8 11.3 0.00 0.00 0.00 60 1006.2
20260506162335 21 178 4.8 17.7 0.00 0.00 0.00 60 1006.3
20260506161559 21 252 4.8 17.7 0.00 0.00 0.00 60 1006.4
20260506161334 21 165 4.8 12.9 0.00 0.00 0.00 60 1006.5
20260506160600 21 325 3.2 9.7 0.00 0.00 0.00 61 1006.7
20260506160112 21 117 4.8 9.7 0.00 0.00 0.00 63 1006.7
20260506155600 21 238 4.8 11.3 0.00 0.00 0.00 63 1006.8
20260506155059 21 200 4.8 11.3 0.00 0.00 0.00 65 1006.9
20260506154821 21 147 3.2 9.7 0.00 0.00 0.00 64 1007.0
20260506154056 21 210 3.2 9.7 0.00 0.00 0.00 64 1007.1
20260506153557 21 327 3.2 11.3 0.00 0.00 0.00 65 1007.2
20260506153057 21 175 4.8 11.3 0.00 0.00 0.00 65 1007.2
20260506152557 21 246 4.8 12.9 0.00 0.00 0.00 65 1007.3
20260506152057 21 227 3.2 12.9 0.00 0.00 0.00 66 1007.2
20260506151557 21 145 3.2 9.7 0.00 0.00 0.00 66 1007.1
20260506151056 20 154 3.2 14.5 0.00 0.00 0.00 67 1007.2
20260506150557 20 204 4.8 14.5 0.00 0.00 0.00 67 1007.4
20260506150110 20 312 4.8 14.5 0.00 0.00 0.00 67 1007.4
20260506145557 20 257 4.8 14.5 0.00 0.00 0.00 67 1007.3
20260506145317 20 0 6.4 14.5 0.00 0.00 0.00 68 1007.2
20260506144558 20 171 4.8 12.9 0.00 0.00 0.00 68 1007.1
20260506144055 20 324 4.8 11.3 0.00 0.00 0.00 69 1007.2
20260506143555 20 211 3.2 11.3 0.00 0.00 0.00 68 1007.3
20260506143052 20 271 3.2 11.3 0.00 0.00 0.00 70 1007.2
20260506142552 20 325 3.2 11.3 0.00 0.00 0.00 70 1007.2
20260506142048 19 177 4.8 11.3 0.00 0.00 0.00 70 1007.1
20260506141814 19 221 4.8 12.9 0.00 0.00 0.00 71 1007.2
20260506141049 19 290 4.8 12.9 0.00 0.00 0.00 71 1007.2
20260506140549 19 193 6.4 12.9 0.00 0.00 0.00 71 1007.2
20260506135550 19 166 4.8 17.7 0.00 0.00 0.00 71 1007.3
20260506135049 19 265 3.2 11.3 0.00 0.00 0.00 72 1007.3
20260506134549 19 0 3.2 11.3 0.00 0.00 0.00 72 1007.4
20260506134049 18 104 3.2 14.5 0.00 0.00 0.00 72 1007.5
20260506133549 18 182 3.2 14.5 0.00 0.00 0.00 73 1007.6
20260506133049 18 0 3.2 9.7 0.00 0.00 0.00 72 1007.6
20260506132809 18 175 3.2 9.7 0.00 0.00 0.00 73 1007.5
20260506132046 18 241 3.2 8.0 0.00 0.00 0.00 73 1007.5
20260506131546 18 240 3.2 8.0 0.00 0.00 0.00 73 1007.5
20260506131045 18 211 3.2 9.7 0.00 0.00 0.00 72 1007.6
20260506130545 18 122 3.2 9.7 0.00 0.00 0.00 73 1007.6
20260506130059 18 193 3.2 11.3 0.00 0.00 0.00 73 1007.6
20260506125546 18 215 3.2 11.3 0.00 0.00 0.00 73 1007.5
20260506125046 18 274 3.2 11.3 0.00 0.00 0.00 73 1007.5
20260506124546 18 190 4.8 12.9 0.00 0.00 0.00 73 1007.4
20260506124046 18 75 4.8 12.9 0.00 0.00 0.00 73 1007.5
20260506123810 18 180 3.2 12.9 0.00 0.00 0.00 73 1007.5
20260506123046 18 284 3.2 12.9 0.00 0.00 0.00 73 1007.7
20260506122547 18 162 3.2 11.3 0.00 0.00 0.00 74 1007.7
20260506122047 18 216 3.2 11.3 0.00 0.00 0.00 74 1007.8
20260506121546 17 212 1.6 11.3 0.00 0.00 0.00 76 1007.8
20260506121311 17 175 1.6 9.7 0.00 0.00 0.00 76 1007.9
20260506120545 17 0 3.2 8.0 0.00 0.00 0.00 76 1007.9
20260506120041 17 221 1.6 6.4 0.00 0.00 0.00 76 1008.0
20260506115541 17 149 1.6 6.4 0.00 0.00 0.00 76 1008.0
20260506115042 17 192 1.6 11.3 0.00 0.00 0.00 76 1008.1
20260506114555 17 322 3.2 11.3 0.00 0.00 0.00 76 1008.1
20260506114043 17 312 3.2 11.3 0.00 0.00 0.00 76 1008.0
20260506113543 17 199 3.2 12.9 0.00 0.00 0.00 76 1008.0
20260506113306 17 196 3.2 12.9 0.00 0.00 0.00 76 1008.1
20260506112543 17 179 1.6 12.9 0.00 0.00 0.00 77 1008.1
20260506112039 16 192 1.6 11.3 0.00 0.00 0.00 77 1008.1
20260506111813 16 245 3.2 11.3 0.00 0.00 0.00 77 1008.2
20260506111037 16 309 1.6 11.3 0.00 0.00 0.00 77 1008.3
20260506110537 16 198 1.6 8.0 0.00 0.00 0.00 78 1008.1
20260506110257 16 0 1.6 8.0 0.00 0.00 0.00 78 1008.2
20260506105803 16 0 0.0 4.8 0.00 0.00 0.00 78 1008.3
20260506105037 16 272 1.6 8.0 0.00 0.00 0.00 78 1008.2
20260506104538 16 205 1.6 8.0 0.00 0.00 0.00 78 1008.1
20260506104037 16 277 1.6 6.4 0.00 0.00 0.00 78 1008.1
20260506103537 16 0 1.6 6.4 0.00 0.00 0.00 78 1008.1
20260506103037 16 0 1.6 6.4 0.00 0.00 0.00 77 1008.2
20260506102537 16 0 1.6 4.8 0.00 0.00 0.00 77 1008.1
20260506102258 16 263 1.6 6.4 0.00 0.00 0.00 77 1008.1
20260506101805 16 186 1.6 8.0 0.00 0.00 0.00 77 1008.1
20260506101037 16 170 1.6 8.0 0.00 0.00 0.00 77 1008.2
20260506100535 16 231 1.6 6.4 0.00 0.00 0.00 77 1008.2
20260506100036 16 296 3.2 8.0 0.00 0.00 0.00 77 1008.1
20260506095531 16 175 3.2 8.0 0.00 0.00 0.00 76 1008.1
20260506095030 16 178 1.6 8.0 0.00 0.00 0.00 76 1007.9
20260506094531 16 85 1.6 11.3 0.00 0.00 0.00 76 1008.0
20260506094248 16 116 3.2 11.3 0.00 0.00 0.00 76 1008.0
20260506093749 16 241 1.6 11.3 0.00 0.00 0.00 76 1008.1
20260506093030 16 231 1.6 11.3 0.00 0.00 0.00 76 1008.0
20260506092732 16 266 3.2 11.3 0.00 0.00 0.00 75 1007.9
20260506092725 16 0 3.2 11.3 0.00 0.00 0.00 75 1008.0
20260506091752 16 222 3.2 11.3 0.00 0.00 0.00 75 1007.9
20260506091030 16 0 3.2 11.3 0.00 0.00 0.00 75 1007.9
20260506090530 16 131 3.2 11.3 0.00 0.00 0.00 75 1007.8
20260506090516 16 244 1.6 11.3 0.00 0.00 0.00 75 1007.8
20260506085530 16 0 1.6 11.3 0.00 0.00 0.00 75 1007.8
20260506085030 16 0 3.2 11.3 0.00 0.00 0.00 74 1007.8
20260506084529 16 242 1.6 9.7 0.00 0.00 0.00 74 1007.8
20260506084030 16 268 1.6 6.4 0.00 0.00 0.00 74 1007.8
20260506083530 17 278 1.6 6.4 0.00 0.00 0.00 73 1007.7
20260506083031 17 258 1.6 8.0 0.00 0.00 0.00 73 1007.8
20260506082529 17 280 1.6 8.0 0.00 0.00 0.00 72 1007.8
20260506082030 17 136 1.6 8.0 0.00 0.00 0.00 72 1007.8
20260506081531 17 259 1.6 8.0 0.00 0.00 0.00 72 1007.7
20260506081247 17 197 1.6 8.0 0.00 0.00 0.00 72 1007.7
20260506080530 17 311 1.6 6.4 0.00 0.00 0.00 71 1007.7